Terminal Aerodrome Forecast
Issued by NWS Spokane, WA

Home | Current Version | Previous Version | Text Only | Print | Product List | Glossary On
Versions: 1 2 3 4 5 6 7 8 9 10 11 12 13 14 15 16 17 18 19 20 21 22 23 24 25
000
FTUS46 KOTX 171720
TAFEAT
TAF
KEAT 171720Z 1718/1818 VRB04KT P6SM SCT100 BKN150
     FM172000 13005KT P6SM SCT100 BKN120 OVC150
     FM180200 31005KT P6SM VCSH FEW100 BKN150 OVC200
     FM180600 31008KT P6SM VCSH BKN080 OVC100=

USA.gov is the U.S. government's official web portal to all federal, state and local government web resources and services.